Location: *
(49.4547°N, 7.9131°E)
Time: 08:18:12
(UTC+00:00)

ARGOS - Pass Details

Date: 22 September 2019
Orbit: 821 x 834 km, 98.5° (Epoch: 17 October)

Event Time Altitude Azimuth Distance (km) Brightness Sun altitude
Exits shadow 17:57:46 - 115° (ESE) 2,838 5.3 -5.8°
Reaches altitude 10° 17:59:03 10° 108° (ESE) 2,427 4.9 -6.0°
Maximum altitude 18:03:08 23° 58° (ENE) 1,712 4.4 -6.6°
Drops below altitude 10° 18:07:14 10° 8° (N) 2,445 5.6 -7.3°
Sets 18:10:03 0° 355° (N) 3,385 6.5 -7.8°
